GFSFLT1_prec_cthk_000.txt.gz
RH
38 39 40 38 41 42 45 41 37 34 32 32 37 35 31 30 30 31 31 29 26 29 31 32 30 29 31 25 22 20 20 24 25
34 35 35 34 35 36 39 43 44 44 38 38 32 33 33 34 33 35 35 37 37 39 31 31 33 34 35 31 26 24 22 22 21
31 33 33 31 34 36 40 41 45 50 49 38 36 35 35 33 34 36 38 39 44 46 41 33 34 37 37 35 27 25 21 20 18
28 31 29 28 29 29 30 37 40 41 40 41 38 38 41 40 57 41 44 42 47 52 51 49 39 35 35 36 30 27 21 21 25
30 30 27 28 27 29 29 30 32 33 38 45 41 45 45 51 36 59 43 46 54 56 57 51 47 39 37 35 33 30 26 26 28
30 31 26 28 30 31 30 27 29 34 39 43 44 49 55 59 55 52 53 53 58 56 60 49 50 48 42 40 34 31 29 33 39
27 27 26 28 31 30 29 30 32 32 34 39 45 47 50 58 60 59 76 60 65 55 61 55 54 54 48 47 40 35 33 42 47
26 25 25 27 25 28 28 30 32 35 36 37 40 42 41 44 52 72 81 76 78 71 61 61 56 55 53 53 53 46 39 46 55
26 22 21 23 26 27 30 32 31 35 37 37 38 40 37 45 61 67 89 93 84 79 67 64 56 61 55 58 62 55 46 51 62
25 22 23 25 27 29 32 34 36 38 40 45 48 46 48 56 62 67 78 91 73 89 75 68 55 58 58 62 68 61 58 62 67
24 26 28 31 32 36 39 36 37 36 35 35 35 39 49 64 68 68 90 77 72 84 73 65 57 61 64 67 73 67 73 79 75
28 31 34 39 42 47 35 32 32 34 34 35 35 38 40 44 58 64 76 86 73 80 74 62 64 68 73 79 79 81 79 84 79
30 34 39 41 43 42 44 35 33 39 43 41 41 44 44 49 55 63 71 76 80 76 75 69 74 74 78 82 92 92 88 87 79
32 36 39 42 45 45 44 41 41 44 45 46 49 49 54 50 53 62 69 74 82 77 73 75 76 79 78 82 88 86 88 83 63
31 34 39 42 43 48 49 47 49 52 51 58 46 51 60 59 55 62 69 74 78 78 80 80 80 86 77 76 80 85 83 63 43
39 41 42 42 44 48 46 48 50 53 52 55 52 60 63 62 66 68 74 77 77 79 83 81 80 80 71 76 76 70 56 46 47
47 49 50 51 54 53 57 45 50 51 55 56 61 63 69 72 75 76 77 77 80 86 85 82 84 78 71 69 70 65 54 49 46
50 48 47 48 47 45 43 42 43 55 57 62 68 65 64 69 75 74 73 73 74 86 82 75 59 69 67 64 60 60 53 50 47
47 44 39 37 43 44 38 37 42 46 45 47 53 57 54 67 69 68 60 57 60 62 59 57 65 71 71 64 63 62 60 56 48
43 38 34 34 35 33 31 34 38 40 45 49 51 54 54 59 57 58 67 56 47 43 50 58 64 71 68 63 63 61 61 57 52

GFSFLT1_prec_cthk_006.txt.gz
RH
36 40 37 35 36 37 31 31 32 35 29 25 26 28 32 34 34 35 38 44 46 45 47 47 48 41 43 43 40 34 29 26 28
31 35 36 36 37 34 33 29 29 33 32 29 30 32 33 35 33 36 46 49 50 49 48 48 46 47 51 57 57 44 34 30 31
27 31 34 36 36 36 34 29 29 33 31 28 29 31 31 31 32 35 40 46 50 49 54 52 54 51 56 55 61 58 49 43 34
25 27 30 33 35 36 35 32 30 37 32 31 29 29 31 33 38 43 40 47 48 53 57 51 53 53 56 67 57 61 58 51 46
25 23 26 29 34 39 36 34 34 32 31 32 35 36 36 39 44 46 45 48 48 52 50 52 54 56 57 50 64 63 65 60 53
20 21 25 30 34 34 35 35 35 32 34 37 43 48 48 48 48 49 55 52 44 54 53 55 54 69 75 67 63 62 65 67 59
21 24 29 32 32 35 34 33 32 31 35 39 46 49 51 57 59 58 60 58 56 52 53 50 57 65 67 72 56 55 63 73 64
22 24 23 30 35 31 29 29 30 32 36 39 43 48 52 55 58 63 65 65 56 59 57 57 56 64 64 65 60 54 68 68 65
23 23 22 29 35 33 30 31 29 29 31 34 38 44 49 52 54 55 57 55 57 57 59 62 69 63 63 64 59 57 62 64 67
21 24 24 28 33 33 31 30 29 30 31 33 38 42 42 45 48 49 49 51 59 62 70 72 67 64 63 63 63 64 59 63 70
22 25 27 30 30 31 28 29 32 34 32 30 35 38 40 43 45 45 43 45 47 51 61 64 64 62 61 64 73 64 66 72 72
24 27 28 31 30 31 31 32 33 31 31 30 33 36 40 38 38 43 44 46 50 59 65 67 65 66 66 69 75 65 74 78 79
25 27 28 29 31 33 33 33 31 30 30 29 30 32 35 37 40 43 46 52 56 65 71 65 64 68 70 72 70 74 75 76 78
30 29 30 28 30 35 33 32 33 34 32 32 33 35 37 40 42 47 53 53 56 62 64 66 69 72 76 77 74 73 79 72 72
34 32 33 31 29 30 33 34 34 31 32 31 35 37 41 47 51 55 57 58 54 58 65 70 72 70 78 80 79 77 74 71 75
34 34 34 34 34 35 34 34 38 34 32 35 37 39 45 51 57 63 59 56 58 59 67 73 73 70 81 82 78 71 69 71 74
39 40 39 37 36 36 34 34 34 35 36 40 41 45 50 54 57 57 54 58 57 61 67 67 70 78 79 76 77 80 81 74 75
44 43 44 43 42 42 38 36 36 37 39 43 48 51 54 53 52 52 52 50 55 62 60 60 65 61 61 70 73 80 75 77 71
58 52 49 50 50 47 44 41 42 44 45 48 48 50 49 45 43 44 49 51 56 58 56 57 53 55 57 61 64 66 69 69 70
58 54 54 58 57 55 50 48 48 50 52 52 49 45 42 41 44 48 52 56 55 51 51 52 52 51 52 56 64 66 68 68 67

GFSFLT1_prec_cthk_009.txt.gz
RH
34 47 37 38 38 39 39 38 37 35 35 32 29 28 28 34 33 38 40 41 46 44 49 51 52 52 47 47 49 52 53 45 34
30 38 38 38 35 35 39 38 31 32 36 32 29 31 31 34 39 38 42 42 43 49 51 55 56 54 51 53 54 54 57 55 54
30 35 37 38 35 36 38 40 33 30 31 31 30 31 34 36 38 39 37 45 46 49 56 51 54 53 57 60 58 61 56 60 59
28 33 37 36 35 35 38 39 36 32 32 33 31 29 31 32 36 37 39 39 43 47 45 48 52 54 56 59 64 70 71 63 59
28 32 35 32 36 36 35 37 37 36 32 33 28 29 29 31 33 38 38 42 43 44 44 46 48 48 47 56 61 68 65 58 64
25 31 39 37 31 36 35 36 38 35 33 31 32 34 36 37 37 36 39 44 44 44 48 48 46 46 51 52 51 59 58 62 60
29 33 30 26 29 31 35 35 38 34 31 32 34 37 40 41 42 41 42 45 48 49 53 53 43 43 47 52 53 51 53 59 58
25 27 27 25 29 30 34 37 38 34 32 32 37 38 41 41 44 43 44 46 48 53 55 51 49 48 53 59 53 54 52 57 64
23 27 30 25 25 29 34 37 37 35 34 35 38 38 37 41 43 45 49 51 55 56 57 59 61 58 59 58 57 58 61 64 63
26 21 24 29 25 26 36 38 38 39 37 35 35 34 36 40 41 43 49 52 54 54 57 63 60 53 56 62 63 65 63 68 63
25 20 20 28 25 31 36 40 37 38 38 34 32 32 36 41 46 50 52 52 52 52 54 56 61 62 60 65 67 64 65 70 70
24 23 30 29 27 33 38 39 37 37 33 32 33 35 37 41 44 46 47 46 48 49 55 59 56 63 65 64 67 67 70 77 72
24 21 26 27 29 34 37 37 38 36 33 35 36 39 39 38 38 41 45 47 48 54 58 62 62 63 66 68 69 72 75 77 72
24 21 23 28 34 35 37 38 38 37 37 36 36 37 37 39 40 40 45 46 51 55 60 66 66 65 63 66 70 74 76 75 75
29 25 26 29 35 36 39 41 41 41 38 35 36 37 40 41 41 44 44 46 51 54 60 67 69 64 68 67 69 71 75 79 75
36 37 34 38 43 38 38 39 38 39 40 41 43 43 43 44 43 45 46 51 54 60 63 60 60 59 64 66 68 80 84 80 76
36 42 41 45 49 43 44 44 43 41 42 43 44 45 42 44 46 49 53 57 57 54 48 53 55 59 57 62 67 67 68 72 81
51 50 48 49 48 43 40 41 43 43 44 44 44 45 47 48 51 53 51 53 53 54 53 51 54 58 57 60 58 55 63 72 83
60 58 51 47 46 43 43 43 43 43 45 47 48 49 52 53 52 53 53 55 54 54 48 51 54 49 48 47 48 54 54 59 66
55 53 51 50 45 45 46 47 50 50 52 53 53 53 57 53 56 57 54 53 50 48 47 44 43 42 41 42 43 53 59 61 65

GFSFLT1_prec_cthk_015.txt.gz
RH
47 45 43 42 40 36 35 38 39 39 35 33 32 32 31 27 25 27 30 26 33 33 33 41 47 45 47 47 50 47 52 52 55
43 47 45 45 45 40 36 35 37 36 36 34 31 28 27 29 30 29 34 27 31 34 40 45 45 44 48 51 50 45 45 49 52
39 38 46 47 49 42 33 31 34 37 37 34 32 32 27 25 23 32 33 30 31 37 44 45 44 44 48 49 54 53 48 50 54
33 33 31 41 44 41 33 32 33 34 36 36 34 32 30 25 22 28 30 27 30 36 43 43 46 46 49 48 51 53 48 47 52
30 32 33 38 41 40 33 33 31 32 35 35 33 31 31 27 23 25 26 27 30 33 38 43 44 48 48 52 51 51 50 45 47
36 34 34 36 38 40 36 38 29 31 33 34 33 31 28 27 23 23 22 27 31 32 33 36 41 43 47 50 52 55 59 54 47
37 36 33 33 35 38 35 35 34 30 32 33 34 31 27 26 22 21 24 26 27 31 32 36 41 44 48 51 53 57 62 59 51
31 32 33 31 36 38 39 33 32 30 32 32 32 33 27 23 22 23 26 28 28 30 33 37 42 44 48 52 58 60 60 64 61
28 29 32 31 33 35 37 36 32 28 29 31 35 35 30 24 23 26 29 30 30 32 35 38 42 47 53 58 62 65 68 70 64
32 29 31 36 36 37 38 37 30 27 24 27 32 34 32 30 24 25 30 34 36 39 41 44 48 52 60 64 67 71 70 66 65
28 32 32 32 33 35 36 36 36 29 24 25 30 35 34 35 29 26 32 36 38 43 46 51 55 61 69 67 66 64 64 67 63
19 24 31 32 38 34 34 33 33 33 29 23 26 32 37 36 32 27 32 37 44 48 51 56 60 65 66 59 60 63 65 67 65
17 19 21 25 33 38 35 36 32 31 28 27 25 32 38 38 36 32 32 41 48 50 55 67 71 60 58 61 62 63 66 62 62
19 19 20 22 24 33 33 37 33 30 28 27 24 35 42 44 41 37 40 46 51 59 73 69 60 59 56 58 61 62 59 59 63
19 21 22 22 23 27 27 33 32 31 28 27 34 41 48 47 45 44 47 51 65 69 65 57 55 55 55 59 60 57 58 62 65
24 26 20 24 24 26 30 36 43 44 41 35 40 50 53 51 50 52 56 62 66 65 54 53 55 55 59 59 58 55 57 56 57
31 31 27 27 36 38 36 39 44 47 45 40 43 54 55 56 56 58 62 63 58 53 52 52 56 58 58 56 54 55 54 50 51
48 45 37 31 39 50 54 52 49 51 50 41 45 56 62 64 67 63 54 53 52 51 51 53 56 56 53 54 52 47 46 43 41
52 57 83 46 43 48 50 53 54 54 58 55 58 67 68 59 52 51 54 52 52 52 57 57 57 56 56 52 44 40 36 36 34
50 52 97 58 55 54 58 62 61 63 62 60 56 52 52 52 52 52 53 54 56 58 60 57 59 59 55 49 41 37 37 33 37

GFSFLT1_prec_cthk_021.txt.gz
RH
42 42 44 46 41 36 37 31 31 31 31 32 34 34 29 25 26 26 25 26 28 27 29 28 35 39 46 47 48 47 47 44 47
39 40 41 43 45 41 44 38 33 33 34 34 35 35 36 32 28 27 28 26 25 29 29 31 35 41 44 47 47 45 46 44 45
33 35 38 40 42 40 39 35 33 36 37 34 34 35 36 33 30 29 26 30 27 31 29 32 34 40 44 49 49 45 44 47 44
29 31 32 36 39 39 36 39 36 34 35 36 36 36 37 38 31 27 27 29 28 28 29 32 37 40 43 46 49 46 48 50 53
24 26 28 32 39 42 39 39 37 32 34 38 37 36 36 37 36 28 26 26 29 25 27 31 36 41 42 45 48 49 50 50 54
21 26 29 33 42 43 42 40 38 35 34 34 36 37 35 34 36 31 24 23 28 24 26 32 35 39 41 43 47 49 49 51 55
24 25 30 33 38 46 43 40 40 35 34 34 34 37 35 32 33 33 25 21 27 25 26 31 33 38 41 44 50 51 52 55 58
22 25 25 31 36 42 42 41 44 42 38 38 37 36 35 32 34 35 30 22 24 25 27 30 34 37 40 43 47 49 51 53 55
17 19 22 25 30 34 38 39 38 40 42 40 40 39 34 34 35 35 32 25 21 25 27 28 30 33 37 38 41 43 45 51 55
15 17 20 25 29 34 38 32 32 36 36 38 40 37 35 35 35 35 31 31 23 22 25 28 29 31 34 34 37 39 44 54 62
14 19 18 21 27 31 34 32 30 31 35 36 39 37 37 39 36 33 32 31 28 24 25 26 27 30 33 36 37 41 50 61 67
10 13 19 19 22 29 30 30 30 30 35 35 35 37 38 36 35 35 34 31 31 29 29 29 28 30 36 38 42 52 62 66 71
11 10 15 21 21 24 27 30 31 30 32 35 36 37 37 35 34 37 37 36 35 35 31 32 33 36 39 43 55 64 65 66 73
15 13 13 18 20 21 28 33 37 37 35 34 36 38 33 37 38 35 36 41 42 37 35 35 38 41 44 54 62 59 50 52 65
19 18 15 13 17 19 23 30 33 37 37 38 42 43 39 41 42 39 37 39 44 47 46 41 40 48 55 59 59 55 57 51 64
23 23 21 20 18 17 20 22 29 31 30 25 32 39 43 41 41 42 43 42 47 51 54 51 50 51 57 58 60 63 66 56 59
33 29 27 26 25 24 23 23 23 23 25 29 34 37 35 36 40 43 35 42 59 48 57 62 59 64 65 66 63 64 63 53 59
39 37 37 36 35 34 31 32 31 31 28 27 27 30 36 36 39 42 50 56 58 55 65 72 72 77 83 77 65 52 55 54 53
40 37 34 35 37 38 38 36 38 38 37 37 34 33 32 37 43 47 51 50 56 73 76 79 90 93 95 83 74 55 57 55 60
43 42 40 41 40 37 36 35 34 36 37 39 42 45 50 46 54 56 66 74 72 64 89 96 91 67 64 64 56 55 59 62 58

GFSFLT1_prec_cthk_024.txt.gz
RH
41 42 42 39 41 36 33 34 35 31 25 21 23 23 23 24 27 27 28 32 33 31 27 28 32 37 42 46 51 50 44 43 45
38 39 41 44 45 42 39 38 39 35 33 30 29 27 28 30 29 29 28 28 30 29 27 26 31 39 43 44 49 50 48 46 48
33 38 41 44 44 46 43 40 39 33 36 32 32 33 33 36 37 35 31 31 31 30 27 27 29 38 41 43 47 50 50 47 47
31 31 32 36 40 43 43 43 41 34 35 37 36 37 35 35 35 36 35 32 32 29 30 28 30 36 40 41 46 49 49 47 48
27 28 27 28 32 37 44 40 43 38 35 34 33 36 38 36 36 37 36 31 29 27 31 29 31 35 40 41 43 47 48 49 51
27 25 24 25 30 34 38 40 41 39 35 33 35 35 36 37 36 36 37 33 28 25 29 29 29 33 38 38 41 46 47 49 48
20 22 23 23 25 30 33 37 36 38 37 39 39 38 35 33 34 32 34 34 27 24 27 28 30 33 37 38 43 46 46 46 49
12 17 20 22 22 29 32 34 39 39 37 38 40 40 36 32 33 35 35 35 31 21 24 25 26 32 36 38 39 42 46 47 49
8 11 15 19 22 25 32 36 37 38 39 37 38 40 35 36 36 38 38 35 35 27 22 27 27 32 34 36 37 42 47 48 47
9 10 12 14 18 24 29 33 38 39 38 39 40 39 39 38 38 37 37 38 36 32 22 24 25 30 33 35 40 44 46 47 44
12 10 12 13 15 17 22 24 28 32 34 34 37 41 42 39 38 38 39 41 38 33 31 23 23 27 31 35 38 41 43 42 41
13 11 9 13 15 17 20 26 31 28 29 33 37 34 34 36 36 38 40 42 37 33 35 31 24 25 29 32 34 35 38 40 41
14 13 10 12 15 16 19 27 30 31 31 31 34 35 35 39 39 42 39 40 40 38 38 37 33 29 29 31 31 32 34 40 43
15 15 12 11 13 16 17 20 25 29 31 29 30 31 33 38 44 45 45 48 49 49 47 43 41 34 31 36 37 33 33 39 48
20 18 17 15 14 14 18 20 22 29 32 35 38 37 37 36 37 43 49 43 46 44 54 53 49 46 41 35 36 38 37 50 57
27 24 24 24 21 18 16 18 23 28 36 39 41 44 43 43 47 55 57 45 43 49 43 61 63 58 55 50 41 38 45 54 55
33 31 27 26 25 25 23 22 24 25 26 29 37 40 43 45 45 53 57 53 59 55 49 47 41 58 73 58 47 53 67 63 68
35 35 34 28 26 27 27 26 26 25 26 26 27 29 34 37 41 42 45 51 53 66 51 60 70 65 72 68 82 78 78 86 83
36 33 32 32 28 27 28 28 27 26 26 26 26 26 27 28 30 35 41 48 53 55 59 65 77 76 61 80 78 99 98 81 95
41 37 34 32 30 28 28 29 30 29 28 28 27 27 27 29 30 31 32 41 48 57 62 67 71 76 78 71 62 70 86 83 81

GFSFLT1_prec_cthk_030.txt.gz
RH
35 35 37 31 33 33 30 29 25 20 19 18 20 20 20 20 21 26 28 29 35 34 39 38 36 30 24 33 37 41 43 45 43
27 32 31 29 29 33 35 26 24 26 21 15 18 19 19 18 20 22 24 25 28 30 34 37 33 29 23 30 36 38 41 44 42
29 31 32 30 29 31 33 30 29 32 30 27 23 22 21 20 19 20 21 23 24 25 28 30 34 28 27 31 36 37 40 43 42
27 34 29 25 31 32 37 39 39 33 38 37 36 30 24 22 22 23 25 27 26 26 27 28 32 29 25 30 37 36 38 42 44
30 34 33 34 30 33 35 35 39 40 39 40 35 33 32 28 26 23 24 25 27 29 28 27 27 29 27 28 36 38 36 41 44
27 28 32 36 31 31 38 42 44 46 46 38 39 38 35 32 31 30 29 29 32 33 32 28 26 26 26 25 30 36 34 37 40
23 28 30 32 33 34 34 35 37 37 41 47 44 41 38 34 30 31 32 34 34 34 35 34 28 25 23 23 25 33 33 33 35
18 25 27 30 33 35 32 31 31 32 33 36 43 41 41 35 32 33 34 35 35 35 35 39 39 32 24 22 25 27 29 29 31
11 17 21 26 31 33 31 31 31 31 31 33 37 39 37 37 36 37 35 36 35 37 38 40 42 40 34 24 21 23 26 28 29
9 10 15 19 26 28 28 29 28 28 27 32 34 37 40 42 39 37 38 40 41 37 38 41 40 41 40 31 22 20 19 24 27
10 9 10 14 20 24 25 26 27 26 28 30 32 34 38 39 38 42 44 43 42 42 40 40 42 42 42 38 29 24 21 23 30
10 10 9 10 15 17 20 21 22 22 23 27 32 31 37 37 40 44 47 45 43 46 53 54 53 54 56 47 36 32 26 24 28
12 12 12 11 10 11 12 13 16 20 20 21 24 28 34 39 41 45 43 43 49 50 51 54 55 56 55 55 47 40 39 31 30
16 14 13 13 13 11 10 9 9 10 17 19 21 35 39 39 35 36 39 42 45 47 49 53 52 54 53 52 53 46 39 37 33
19 17 18 16 15 14 13 13 10 10 12 16 22 26 28 29 30 35 36 39 41 42 43 42 44 51 52 41 45 47 44 39 36
22 22 22 17 15 17 17 14 12 12 11 16 22 25 27 29 32 32 31 33 36 38 40 43 43 43 48 46 41 48 46 44 54
29 29 28 23 22 21 21 17 17 15 14 15 16 20 22 26 33 35 37 40 42 42 45 45 43 44 43 42 47 48 49 49 58
35 36 31 30 32 29 27 25 23 22 21 22 20 21 23 25 27 32 34 34 36 37 43 44 46 46 48 50 47 50 50 49 53
41 38 37 36 35 34 33 32 27 24 23 22 24 26 24 24 27 30 28 29 31 32 34 35 38 39 41 44 46 47 47 48 57
46 42 41 41 40 38 36 35 29 25 24 23 23 24 25 27 28 28 33 34 36 36 35 31 32 34 38 38 35 37 42 53 69

GFSFLT1_prec_cthk_033.txt.gz
RH
40 43 41 42 38 38 33 25 23 23 25 22 23 20 22 19 19 23 25 27 31 34 37 36 39 34 33 29 34 38 40 44 41
38 43 42 37 38 33 31 30 24 21 17 16 16 16 17 18 17 17 22 24 25 30 30 35 38 36 29 28 28 38 38 39 42
30 35 42 33 34 32 33 31 26 21 20 16 9 11 12 14 15 15 18 22 24 24 28 27 37 31 30 26 25 33 38 38 41
27 29 37 34 30 31 33 34 33 25 23 23 22 16 15 18 18 18 20 23 24 24 24 25 25 28 28 25 23 28 36 36 42
24 28 34 40 33 35 39 36 35 34 34 34 31 31 29 23 21 20 20 23 26 26 28 27 27 28 28 29 25 27 34 37 36
26 32 36 41 39 29 32 33 35 37 37 37 39 38 36 33 28 22 20 20 20 21 23 26 26 26 27 26 25 24 28 34 31
26 31 34 41 42 36 31 30 31 36 43 48 47 46 45 40 37 28 25 25 24 24 25 26 26 27 26 24 21 23 21 26 30
25 27 29 35 35 37 35 32 34 37 41 45 46 47 47 43 41 38 35 35 31 30 28 28 34 37 37 33 27 22 20 20 25
21 22 25 29 30 34 36 35 35 34 33 35 38 39 41 46 46 43 39 39 37 34 31 32 35 36 38 39 37 31 23 21 22
15 18 20 24 27 29 33 36 35 35 31 33 34 35 39 42 45 44 43 41 42 40 37 35 34 36 39 41 43 39 32 23 24
14 12 15 19 22 27 30 32 36 35 33 32 31 31 36 37 40 42 45 44 43 43 46 45 42 40 41 41 41 43 38 32 27
16 13 12 12 16 23 26 27 32 34 35 33 33 31 30 33 35 41 44 39 41 44 47 48 45 46 47 46 43 45 45 39 35
22 17 15 15 13 14 18 20 24 29 31 32 31 28 29 34 35 36 42 42 41 45 46 45 50 50 47 44 42 44 46 47 40
26 24 20 18 17 16 14 14 15 19 24 27 27 30 29 30 33 32 39 42 39 44 46 48 48 49 48 45 41 40 45 49 50
27 25 21 19 20 22 17 13 14 14 15 14 18 21 24 29 32 32 40 42 43 44 47 47 49 49 48 45 42 40 43 45 49
28 29 23 19 20 24 19 18 16 15 14 14 14 15 18 23 31 32 36 41 42 44 45 41 42 44 43 41 42 45 46 45 47
35 33 32 33 28 23 21 23 22 19 19 18 17 17 19 23 27 31 35 35 38 42 44 43 40 44 41 38 42 45 46 47 51
38 39 38 33 32 29 29 28 28 27 24 21 20 21 21 24 27 30 33 34 38 42 44 47 46 47 49 48 48 43 47 52 53
42 40 37 36 36 34 32 31 29 28 25 28 30 26 28 28 28 29 29 32 33 34 36 40 45 46 42 41 45 45 48 49 52
46 44 44 46 42 39 38 37 33 27 30 31 32 32 30 31 29 33 34 35 35 37 39 40 41 40 38 36 36 39 45 46 48

GFSFLT1_prec_cthk_036.txt.gz
RH
43 47 51 48 46 40 36 33 31 23 23 21 20 21 22 20 21 22 21 23 25 27 31 32 29 30 31 28 28 31 40 34 40
36 40 48 49 48 38 33 31 27 23 21 19 18 17 19 18 18 18 16 19 21 24 26 31 34 32 33 29 28 25 36 36 35
32 36 41 45 47 39 33 27 25 23 21 15 14 15 14 13 12 12 13 15 17 21 23 23 33 30 30 28 26 25 29 36 34
30 34 38 43 48 41 30 28 30 25 22 20 15 12 10 10 11 12 15 16 18 20 24 26 25 33 26 27 28 25 24 32 36
30 35 41 42 45 41 31 29 29 26 22 22 18 17 16 15 16 17 17 17 18 21 24 27 27 30 32 27 26 24 23 23 31
26 31 34 39 42 42 32 29 30 29 29 28 32 33 30 27 21 20 19 18 18 18 20 23 26 28 30 26 24 24 23 20 22
23 26 30 36 39 42 41 33 32 32 34 36 37 38 38 38 37 32 24 21 22 21 21 21 22 23 26 29 26 23 23 25 23
26 29 34 40 38 46 44 32 32 33 34 38 41 42 44 44 42 41 38 31 28 26 23 23 21 24 27 30 32 29 23 21 22
27 30 34 37 42 48 54 47 34 30 30 35 41 43 42 44 44 45 42 42 37 36 32 28 28 28 28 31 35 34 30 26 21
26 27 29 32 33 34 40 42 40 34 31 37 40 38 38 40 42 43 44 44 43 40 39 38 33 31 31 31 33 37 37 35 31
21 24 24 25 25 28 32 34 39 41 40 39 37 36 36 36 40 42 43 41 43 44 42 41 41 42 39 34 32 34 39 42 41
19 19 19 21 22 23 26 31 35 37 35 33 33 33 33 34 34 38 38 36 41 44 45 44 43 43 44 43 41 41 41 44 46
28 25 24 22 20 18 19 24 28 29 31 32 32 33 32 33 34 34 36 37 38 42 46 45 46 45 44 44 43 45 47 50 55
31 28 25 22 18 17 18 19 20 23 26 27 27 31 33 33 32 32 33 39 39 40 44 47 42 41 45 44 43 44 46 47 50
34 30 29 27 22 19 19 18 15 15 17 18 19 23 29 31 33 33 33 36 41 42 39 43 43 41 43 42 43 48 46 46 49
40 39 36 31 25 20 19 23 18 14 13 13 14 16 17 20 25 28 31 35 42 43 41 45 48 44 44 50 49 46 47 49 50
42 44 40 42 36 31 28 24 21 18 15 15 17 16 17 16 18 20 23 29 37 40 40 41 46 47 50 53 53 51 50 49 49
46 45 45 41 39 40 38 31 27 23 21 20 19 19 20 20 21 24 27 30 34 42 43 44 48 48 47 48 51 54 53 51 49
39 35 42 39 38 39 39 35 31 28 27 26 26 25 25 24 27 30 31 34 34 34 40 42 43 42 43 43 42 43 44 43 44
42 36 46 43 42 42 40 37 32 27 27 30 29 31 31 31 31 39 38 38 37 37 38 37 38 37 35 35 35 35 36 38 40